CAPE
0 0 0 0 0 0 0 0 0 0 0 0 0 1 1 1 0 0 0 0 0 0 0 0 0 0 0 0 0 0 0 0 0 1 2 316 496 451 287 452 625 580 477 984 979
0 0 0 0 0 0 0 0 0 0 0 0 1 1 1 0 0 0 0 0 0 0 0 0 0 0 0 0 0 0 0 0 0 0 0 52 217 662 646 688 835 924 931 1471 871
0 0 0 0 0 0 0 0 0 0 0 0 1 1 1 0 0 0 0 0 0 0 0 0 0 0 0 0 0 0 0 0 0 0 0 4 59 528 714 782 929 1150 1495 1517 805
0 0 0 0 0 0 1 1 1 1 1 0 0 0 0 0 0 0 0 0 0 0 0 0 0 0 0 0 0 0 0 0 0 0 0 7 1 406 828 935 916 916 1669 1520 1131
0 0 0 0 0 1 1 1 2 2 1 2 1 0 0 0 0 0 0 0 0 0 0 0 0 0 0 0 0 0 0 0 0 0 0 1 0 130 698 1272 939 945 1619 1729 1293
0 0 0 0 0 0 1 1 2 2 2 0 0 0 0 0 0 0 0 0 0 0 0 0 0 0 0 0 0 0 0 0 0 0 0 0 0 97 343 1264 1206 1274 1518 1782 1384
0 0 0 0 0 1 1 1 2 2 1 0 0 0 0 0 0 0 0 0 0 0 0 0 0 0 0 0 0 0 0 0 0 0 0 0 74 207 224 1030 1388 1440 1467 1659 1623
0 0 0 0 0 0 1 0 0 0 0 0 0 0 0 0 0 0 0 0 0 0 0 0 0 0 0 0 0 0 0 0 0 0 8 10 0 0 97 1112 1403 1655 1748 1764 1834
0 0 0 0 0 0 0 0 0 0 0 0 0 0 0 0 0 0 0 0 0 0 0 0 0 0 0 0 0 0 0 0 0 0 12 13 0 0 493 1023 1598 1858 1989 1860 1661
0 0 0 0 0 0 0 0 0 0 0 0 0 0 0 0 0 0 0 0 0 0 0 0 0 0 0 0 0 0 0 0 0 0 17 1 0 695 894 874 1353 1931 2071 1675 1283
0 0 0 1 1 0 0 0 0 0 0 0 0 0 0 0 0 0 0 0 0 0 0 0 0 0 0 0 0 0 0 0 0 0 18 2 0 17 1186 1271 1274 1725 1989 1925 1615
0 0 0 2 0 0 0 0 0 0 0 0 0 0 0 0 0 0 0 0 0 0 0 0 0 0 0 0 0 0 0 0 0 0 77 7 10 0 391 1243 1332 1373 1696 1895 1718
0 0 0 0 0 0 0 0 0 0 0 0 0 0 0 0 0 0 0 0 0 0 0 0 0 0 0 0 0 0 0 0 0 0 0 0 0 0 41 530 1127 1415 1608 1854 1743
0 0 1 0 0 0 0 0 0 0 0 0 0 0 0 0 0 0 0 0 0 0 0 0 0 0 0 0 0 0 0 0 0 0 0 0 0 2 3 223 622 1145 1625 1839 1705
0 0 0 0 0 0 0 0 0 0 0 0 0 0 0 0 0 0 0 0 0 0 0 0 0 0 0 0 0 0 0 0 0 0 0 0 0 0 431 483 720 915 1377 1681 1859
0 0 0 0 0 0 0 0 0 0 0 0 0 0 0 0 0 0 0 0 0 0 0 0 0 0 0 0 0 0 0 0 0 0 0 0 6 0 132 68 246 982 1232 1471 1714
0 0 0 0 0 0 0 0 0 0 0 0 0 0 0 0 0 0 0 0 0 0 0 0 0 0 0 0 0 0 0 0 5 0 0 2 1 0 11 3 0 124 1076 1387 1638
0 0 0 0 0 0 0 0 0 0 0 0 0 0 0 0 0 0 0 0 0 1 0 0 30 0 0 0 3 0 1 7 22 29 26 0 0 0 0 0 85 363 993 1376 1795
0 0 0 0 0 0 0 0 0 0 0 0 0 0 0 0 0 0 105 98 56 196 226 30 23 3 2 0 0 25 0 11 1 2 1 0 4 1 0 0 82 456 680 1419 1939
0 0 0 0 0 0 0 0 0 0 0 0 0 0 0 0 0 0 15 0 0 49 167 156 83 9 32 18 10 5 8 9 29 17 35 27 42 18 25 13 2 278 1093 1586 1897
0 0 0 0 0 0 0 0 0 0 0 0 0 0 0 0 0 0 0 0 0 0 0 32 46 45 34 70 70 87 131 27 27 40 51 49 54 64 8 60 171 166 765 1848 1722
0 0 0 0 0 0 0 0 0 0 0 0 0 0 0 0 0 0 0 23 0 0 0 246 23 3 0 0 8 154 165 287 299 202 115 59 22 23 14 131 300 306 322 1480 1569
0 0 0 0 0 0 0 0 0 0 0 0 0 0 0 0 0 0 36 0 0 0 0 84 3 1 0 0 52 111 208 140 132 190 128 256 156 108 78 251 454 435 607 1173 1299
0 0 0 0 0 0 0 0 0 0 0 0 0 0 0 0 0 0 0 0 0 0 30 69 38 43 1 1 32 13 0 0 102 207 113 95 117 169 201 322 439 510 452 994 1307
0 0 0 0 0 0 0 0 0 0 0 0 0 0 0 0 0 0 0 0 0 0 0 0 8 0 0 0 0 0 0 0 54 45 92 0 1 2 48 203 527 573 361 746 1249
0 0 0 0 0 0 0 0 0 0 0 0 0 0 0 0 0 0 0 0 0 0 0 0 0 0 0 0 0 0 0 0 0 0 0 0 0 0 1 260 583 811 616 669 1207
0 0 0 0 0 0 0 0 0 0 0 0 0 0 0 0 0 0 0 0 0 0 0 0 0 0 0 0 0 0 0 0 0 0 0 0 36 319 394 433 699 792 645 528 1000
CIN
0 0 0 0 0 0 0 0 0 0 0 0 0 0 0 0 0 0 0 0 0 0 0 0 0 0 0 0 0 0 0 0 0 -30 -29 -60 -38 -83 -116 -72 -68 -53 -57 -30 -62
0 0 0 0 0 0 0 0 0 0 0 0 0 0 0 0 0 0 0 0 0 0 0 0 0 0 0 0 0 0 0 0 0 0 0 -70 -44 -50 -74 -54 -51 -76 -65 -51 -75
0 0 0 0 0 0 0 0 0 0 0 0 0 0 0 0 0 0 0 0 0 0 0 0 0 0 0 0 0 0 0 0 0 0 0 -125 -68 -43 -56 -20 -25 -37 -47 -62 -92
0 0 0 0 0 0 0 0 0 0 0 0 0 0 0 0 0 0 0 0 0 0 0 0 0 0 0 0 0 0 0 0 0 0 -29 -124 -104 -49 -32 -7 -2 -16 -30 -52 -57
0 0 0 0 0 0 0 0 0 0 0 0 0 0 0 0 0 0 0 0 0 0 0 0 0 0 0 0 0 0 0 0 0 0 0 -157 0 -39 -28 -47 -36 -33 -34 -18 -18
0 0 0 0 0 0 0 0 0 0 0 0 0 0 0 0 0 0 0 0 0 0 0 0 0 0 0 0 0 0 0 0 0 0 0 0 0 -54 -31 -31 -54 -45 -29 -7 -8
0 0 0 0 0 0 0 0 0 0 0 0 0 0 0 0 0 0 0 0 0 0 0 0 0 0 0 0 0 0 0 0 0 0 0 0 -95 -65 -38 -46 -44 -48 -35 -12 -14
0 0 0 0 0 0 0 0 0 0 0 0 0 0 0 0 0 0 0 0 0 0 0 0 0 0 0 0 0 0 0 0 0 0 -34 -78 0 0 -56 -54 -44 -50 -37 -38 -26
0 0 0 0 0 0 0 0 0 0 0 0 0 0 0 0 0 0 0 0 0 0 0 0 0 0 0 0 0 0 0 0 0 0 -18 -45 0 0 -39 -50 -31 -40 -38 -53 -99
0 0 0 0 0 0 0 0 0 0 0 0 0 0 0 0 0 0 0 0 0 0 0 0 0 0 0 0 0 0 0 0 0 0 -45 -10 0 -11 -54 -40 -28 -26 -32 -100 -149
0 0 0 0 0 0 0 0 0 0 0 0 0 0 0 0 0 0 0 0 0 0 0 0 0 0 0 0 0 0 0 0 0 0 -15 -19 0 -19 -35 -48 -28 -29 -29 -53 -80
0 0 0 0 0 0 0 0 0 0 0 0 0 0 0 0 0 0 0 0 0 0 0 0 0 0 0 0 0 0 0 0 0 0 -11 -1 -13 0 -9 -26 -26 -22 -28 -23 -43
0 0 0 0 0 0 0 0 0 0 0 0 0 0 0 0 0 0 0 0 0 0 0 0 0 0 0 0 0 0 0 0 0 0 0 0 0 0 -39 -26 -43 -58 -35 -9 -31
0 0 0 0 0 0 0 0 0 0 0 0 0 0 0 0 0 0 0 0 0 0 0 0 0 0 0 0 0 0 0 0 0 0 0 0 0 0 -8 -13 -38 -70 -80 -41 -34
0 0 0 0 0 0 0 0 0 0 0 0 0 0 0 0 0 0 0 0 0 0 0 0 0 0 0 0 0 0 0 0 0 0 0 0 0 0 -9 -5 -10 -31 -74 -70 -35
0 0 0 0 0 0 0 0 0 0 0 0 0 0 0 0 0 0 0 0 0 0 0 0 0 0 0 0 0 0 0 0 0 0 0 0 0 0 -1 -2 0 -13 -43 -88 -75
0 0 0 0 0 0 0 0 0 0 0 0 0 0 0 0 0 0 0 0 0 0 0 0 0 0 0 0 0 0 0 0 0 0 0 -6 0 0 -1 -1 0 0 -14 -61 -106
0 0 0 0 0 0 0 0 0 0 0 0 0 0 0 0 0 0 0 0 0 -9 0 0 0 0 0 0 0 0 0 0 0 0 0 -6 0 0 0 0 -8 -17 -38 -51 -103
0 0 0 0 0 0 0 0 0 0 0 0 0 0 0 0 0 0 -29 -27 -68 -56 -10 -1 -1 -16 -22 -2 0 -1 0 -1 0 0 0 0 0 0 0 0 -9 -14 -40 -41 -101
0 0 0 0 0 0 0 0 0 0 0 0 0 0 0 0 0 0 -43 0 0 -70 -70 -34 -15 -36 -31 -23 -16 -9 -4 -1 0 0 0 0 0 0 0 0 -1 -1 -24 -45 -125
0 0 0 0 0 0 0 0 0 0 0 0 0 0 0 0 0 0 0 0 0 0 0 -51 -45 -1 -41 -1 -14 -2 -1 -2 -5 -1 0 0 0 -1 0 0 -8 -2 -4 -38 -128
0 0 0 0 0 0 0 0 0 0 0 0 0 0 0 0 0 0 0 -90 0 0 0 -30 -20 -1 0 0 -59 -23 0 -4 0 0 0 0 0 -4 0 -2 -6 -25 -11 -22 -121
0 0 0 0 0 0 0 0 0 0 0 0 0 0 0 0 0 0 -132 0 0 0 0 -69 -2 -2 0 0 -34 -13 -6 -19 -26 -22 -10 0 0 0 -4 -2 -4 -20 -49 -56 -145
0 0 0 0 0 0 0 0 0 0 0 0 0 0 0 0 0 0 0 0 0 0 -236 -114 -88 -55 -23 -7 -29 -38 0 0 -4 -2 0 0 0 -1 -2 -2 -4 -35 -59 -71 -177
0 0 0 0 0 0 0 0 0 0 0 0 0 0 0 0 0 0 0 0 0 0 0 0 -28 0 0 0 0 0 0 0 -25 -20 0 0 -4 -3 -20 -20 -63 -85 -96 -90 -126
0 0 0 0 0 0 0 0 0 0 0 0 0 0 0 0 0 0 0 0 0 0 0 0 0 0 0 0 0 0 0 0 0 0 0 0 0 0 -1 -47 -83 -113 -149 -88 -105
0 0 0 0 0 0 0 0 0 0 0 0 0 0 0 0 0 0 0 0 0 0 0 0 0 0 0 0 0 0 0 0 0 0 0 0 0 -7 -27 -43 -74 -151 -180 -162 -111
Wind_Speed
13 14 13 14 14 14 13 12 12 14 12 13 14 14 13 13 15 9 10 1 2 6 5 12 11 12 12 12 9 8 10 11 11 10 5 10 10 7 3 6 7 8 3 17 18
14 14 15 15 16 16 15 14 13 13 13 12 14 14 12 10 11 11 5 2 1 12 10 13 13 14 14 13 8 12 12 13 5 7 6 7 9 11 8 11 9 10 9 20 19
16 17 17 16 16 16 16 15 13 12 14 11 13 13 11 11 8 8 3 7 9 8 13 10 4 13 15 10 13 15 14 11 7 8 5 4 9 9 12 13 11 15 18 20 17
17 17 17 17 16 16 16 15 14 14 13 11 11 11 10 7 2 6 7 9 10 10 11 12 11 12 14 12 12 12 17 12 10 3 7 8 3 11 13 3 8 14 17 20 18
18 18 19 18 17 16 16 15 15 15 13 11 10 8 8 7 1 6 6 10 12 9 11 12 14 14 13 13 10 16 9 13 6 4 9 4 10 12 15 8 6 14 16 18 17
18 19 20 19 18 18 17 16 15 14 10 8 7 6 7 5 3 1 8 13 9 10 8 7 6 6 10 8 15 10 8 5 7 11 8 10 9 10 12 15 11 16 17 15 17
18 19 20 19 20 19 18 15 14 12 9 5 7 6 6 5 4 9 8 0 9 4 5 5 3 9 3 7 4 4 11 10 11 7 7 7 8 14 5 12 13 15 16 15 17
20 19 20 20 20 19 18 16 14 6 5 8 8 5 3 4 3 6 5 6 5 2 1 4 4 3 7 3 7 11 9 12 13 9 6 10 16 20 14 14 15 15 15 16 17
21 20 21 21 20 19 17 15 7 6 8 9 6 5 7 6 5 2 10 5 7 5 5 6 6 2 6 11 10 10 12 14 10 11 7 15 16 8 10 14 15 16 16 14 13
22 22 22 22 21 18 16 5 8 10 6 5 3 6 5 6 3 3 7 10 7 10 8 7 7 9 8 9 9 9 13 6 10 12 13 15 18 6 9 14 15 15 16 15 16
23 23 22 21 20 15 9 6 6 7 6 6 6 5 2 4 4 6 8 12 9 9 9 7 10 10 4 2 7 7 8 6 4 2 11 14 16 13 10 13 15 16 17 18 17
25 23 23 21 20 14 7 4 6 6 5 2 2 5 4 3 4 8 9 11 10 10 5 9 11 0 4 5 6 6 9 11 3 4 9 10 12 11 10 14 15 16 17 17 16
23 23 24 22 18 7 7 7 6 4 7 2 1 4 4 5 3 10 13 10 10 8 10 9 8 5 6 8 9 9 9 8 12 6 8 6 13 13 14 14 15 18 15 17 18
24 23 23 22 5 2 3 5 8 4 6 6 3 5 2 2 5 2 9 7 7 8 5 6 5 8 9 9 9 10 5 7 7 10 12 12 13 14 12 16 18 20 19 18 19
25 23 20 10 3 2 6 8 2 5 6 5 5 2 3 5 2 5 7 7 6 7 9 8 5 5 6 2 4 3 2 5 7 10 15 13 11 13 5 12 18 20 20 20 20
26 23 15 4 2 5 7 3 5 7 3 2 3 6 2 6 4 5 8 7 4 4 7 7 1 7 4 3 7 4 10 8 8 12 13 18 14 14 12 12 14 14 18 19 20
26 22 7 3 5 9 5 5 6 5 2 3 3 4 3 6 7 1 9 8 5 9 12 9 11 11 6 10 12 9 11 10 11 10 13 2 7 12 10 7 11 10 11 18 20
27 14 5 3 6 7 5 6 5 2 2 2 2 2 3 9 7 3 9 9 7 8 9 6 9 6 6 7 4 6 5 9 7 9 7 7 8 10 8 8 9 7 8 14 20
26 2 3 7 5 5 7 7 4 3 1 1 3 3 3 3 3 3 10 6 8 10 7 6 3 3 2 7 8 5 10 5 9 10 10 14 11 8 14 12 12 11 11 14 20
6 3 4 11 5 6 6 4 4 3 1 3 2 3 1 3 2 2 2 7 4 7 5 5 7 3 2 6 5 9 7 6 11 14 18 12 9 9 7 8 11 8 11 13 18
4 5 7 10 4 6 5 4 6 4 1 2 1 2 1 2 3 1 2 6 8 8 5 6 4 4 6 0 9 5 10 6 7 9 11 14 11 1 6 12 16 20 11 12 16
5 4 7 8 5 1 2 2 2 2 0 2 2 1 3 1 3 3 2 4 7 5 5 5 6 9 13 6 7 9 6 6 8 8 9 8 12 17 13 13 14 12 15 8 14
6 4 3 5 3 3 4 4 2 3 1 2 4 2 2 3 4 3 2 4 7 5 5 4 4 8 9 10 6 6 1 4 5 7 11 12 10 2 12 16 12 13 11 7 11
5 3 3 3 2 3 1 2 4 2 2 1 0 3 5 6 4 2 5 2 5 4 3 3 9 10 10 11 10 12 13 12 8 8 13 13 16 14 18 16 17 18 11 7 13
3 4 5 2 5 2 2 1 4 5 1 2 4 3 3 4 7 9 4 5 4 2 3 5 9 11 11 14 15 17 18 15 17 17 18 17 20 18 21 21 19 20 17 10 15
5 4 2 1 2 4 3 5 7 4 3 5 9 2 4 6 7 7 2 4 5 2 3 4 8 10 15 16 18 21 20 20 21 21 23 21 21 21 19 17 20 20 20 13 14
2 1 5 4 4 5 1 2 3 3 1 2 2 6 7 3 3 7 8 10 11 9 7 6 7 8 12 6 9 14 19 20 18 18 17 19 14 15 17 18 20 19 19 18 11
Wind_Direction
352 348 343 339 330 335 328 329 328 320 322 326 321 317 315 316 298 216 250 81 114 120 226 149 185 193 204 214 229 244 240 235 215 222 210 130 189 163 178 176 181 162 145 129 146
348 344 341 336 337 330 325 328 324 321 314 324 315 311 315 322 276 252 86 105 283 162 196 185 179 185 198 213 207 223 230 234 236 212 248 148 209 158 184 187 172 144 131 133 151
349 345 337 337 332 329 326 322 318 317 310 320 310 307 312 300 268 96 87 206 202 207 222 219 207 199 216 212 209 218 247 236 217 249 260 185 204 174 215 190 188 171 147 155 163
347 339 336 333 332 329 320 317 314 311 307 311 301 302 304 254 344 74 351 183 176 202 201 202 213 207 218 207 202 235 235 261 239 144 221 220 223 204 226 69 176 173 161 165 168
340 336 333 332 329 324 321 318 313 308 307 299 291 289 265 231 29 86 118 135 161 185 186 193 204 217 224 211 199 229 238 232 215 233 228 213 238 220 213 127 180 160 167 174 175
335 333 333 329 328 328 326 318 313 310 298 281 257 262 246 263 52 101 129 154 175 192 186 211 225 223 263 227 218 203 229 224 221 230 211 228 230 214 222 165 168 166 176 175 177
331 330 329 329 332 331 326 325 317 310 282 220 211 232 248 12 89 121 154 227 171 191 198 196 240 220 167 176 201 207 215 213 214 208 215 240 208 227 197 165 186 186 186 178 182
329 327 330 333 334 332 332 330 320 338 114 158 186 240 324 119 169 219 193 138 184 192 3 196 192 276 264 52 196 218 237 216 184 193 166 219 240 204 184 189 186 190 185 184 182
329 329 331 335 336 334 334 328 318 111 127 152 211 272 113 139 198 147 196 186 159 146 94 152 225 278 182 210 195 211 239 215 169 201 180 216 242 106 157 198 193 190 188 182 178
331 330 333 336 336 334 327 276 126 158 180 228 254 227 182 105 65 120 187 165 154 154 154 190 208 212 215 224 237 210 231 218 243 175 219 211 244 125 194 203 203 196 190 190 193
332 334 335 334 331 330 300 187 218 170 208 357 337 310 322 311 229 162 172 188 166 200 193 199 226 217 207 351 336 309 290 260 113 180 225 228 225 203 190 209 213 205 201 196 200
334 335 332 332 327 318 266 38 46 357 307 139 296 277 296 295 230 189 183 195 200 206 165 195 230 257 248 213 245 244 245 239 207 233 240 206 235 233 192 224 223 219 215 205 193
332 336 333 331 323 278 48 58 345 297 260 35 34 353 28 193 218 161 197 210 214 207 210 274 83 120 204 197 229 224 261 259 265 148 245 272 247 241 234 229 231 235 222 211 185
335 338 335 326 294 23 85 345 321 243 249 45 87 80 172 265 173 235 227 217 210 229 191 258 69 231 224 234 229 248 195 245 233 235 242 193 260 205 219 227 229 230 222 213 182
336 337 335 335 348 357 1 325 316 227 224 29 27 351 44 280 4 136 190 221 219 163 228 102 175 184 222 231 198 25 185 286 252 243 261 215 249 267 197 236 242 229 219 215 193
335 334 331 209 225 23 318 316 223 227 116 102 358 350 143 47 91 119 174 232 328 217 237 284 193 276 270 224 236 295 259 233 248 244 230 241 231 260 197 233 240 224 221 209 203
333 330 290 296 2 337 310 212 240 293 144 62 355 337 39 22 59 57 165 190 269 219 212 203 231 220 244 252 220 226 244 243 212 208 243 181 252 258 282 231 258 257 215 202 196
328 321 164 337 313 311 252 232 246 81 44 21 323 49 56 6 44 98 168 131 50 314 289 280 160 177 163 266 334 209 283 288 283 265 253 155 250 250 261 288 274 277 252 197 187
314 190 221 4 324 290 258 235 56 140 85 329 198 228 144 57 322 150 80 49 35 16 319 307 208 342 249 292 267 149 234 330 289 258 267 278 258 241 237 244 254 254 223 199 182
313 271 57 339 321 267 253 56 134 107 202 232 248 294 226 34 273 319 97 33 15 25 335 28 285 111 355 281 222 270 5 235 220 253 264 257 242 273 293 277 278 232 224 193 178
268 256 41 341 264 247 270 83 139 107 301 251 194 211 3 354 334 92 69 84 17 357 327 347 266 199 271 275 338 266 236 218 305 304 290 274 265 72 305 326 332 313 198 180 180
307 261 20 327 234 288 151 57 297 126 226 167 202 273 267 214 272 270 196 37 12 330 331 50 308 285 291 329 299 262 291 287 274 239 240 300 292 310 294 308 316 315 305 176 184
334 324 22 305 265 146 133 131 73 196 83 204 170 255 218 251 256 223 186 108 13 354 351 2 218 262 238 189 210 226 155 312 309 294 268 272 273 83 313 296 315 333 320 175 194
295 273 92 63 64 342 213 176 172 77 84 301 220 214 197 235 224 246 217 121 341 357 2 260 253 258 280 312 334 288 278 280 257 275 284 273 289 290 286 297 322 331 330 225 186
356 67 2 29 85 48 234 245 219 195 213 264 184 248 235 236 246 241 236 272 225 73 209 315 263 260 267 270 275 277 278 273 268 267 259 276 279 287 292 307 322 318 312 251 190
328 321 168 72 286 248 155 187 238 164 268 195 263 184 238 247 264 304 280 235 278 218 308 302 274 280 275 269 262 267 266 264 262 262 270 273 278 280 284 313 314 324 325 274 214
71 142 287 122 190 248 206 203 200 209 180 351 317 266 236 303 339 308 287 279 273 280 281 273 277 264 275 277 288 271 250 255 260 263 263 268 293 328 311 323 327 323 311 308 250